Regional Weather Roundup
Issued by NWS Kansas City/Pleasant Hill, MO

Home | Current Version | Previous Version | Graphics & Text | Print | Product List | Glossary Off
Versions: 1 2 3 4 5 6 7 8 9 10 11 12 13 14 15 16 17 18 19 20 21 22 23 24 25 26 27 28 29 30 31 32 33 34 35 36 37 38 39 40 41 42 43 44 45 46 47 48 49 50

000
ASUS43 KEAX 030410
RWREAX

WEATHER ROUNDUP FOR EASTERN KANSAS AND NORTHWEST MISSOURI
NATIONAL WEATHER SERVICE KANSAS CITY/PLEASANT HILL MO
1100 PM CDT TUE JUN 02 2015

KSZ040-057-103>105-MOZ028-029-037-043-030500-
...KANSAS CITY METROPOLITAN AREA...

CITY           SKY/WX    TMP DP  RH WIND       PRES   REMARKS
K.C. INTL      PTCLDY    67  59  75 SE13      29.96S
K.C. DOWNTOWN  PTCLDY    69  58  67 E8        29.95F
LEES SUMMIT    PTCLDY    67  59  75 SE8       29.98S
OLATHE - IXD   CLEAR     67  59  75 SE8       29.97S
OLATHE - OJC   CLEAR     67  59  75 SE8       29.96S
LAWRENCE       MOCLDY    69  60  73 SE9       29.95R

$$

MOZ001>008-011>017-020>025-030>033-038>040-044>046-053-054-030500-
...NORTHERN AND CENTRAL MISSOURI...

CITY           SKY/WX    TMP DP  RH WIND       PRES   REMARKS
ST. JOSEPH     MOCLDY    68  58  70 SE12      29.94F
MOSBY          CLOUDY    66  57  72 SE9       29.97S
HARRISONVILLE  PTCLDY    68  61  77 E6        30.00S
WARRENSBURG    MOCLDY    63  57  82 E9        30.00S
WHITEMAN AFB   MOCLDY    64  58  81 SE8       29.99S
CLINTON        PTCLDY    66  61  82 E7        30.00S
SEDALIA        MOCLDY    63  57  81 SE8       30.02R
WARSAW         FAIR      63  57  82 E8        30.01S
CHILLICOTHE      N/A     66  57  72 SE6       30.00S
MOBERLY        CLEAR     59  54  82 CALM      30.03S
KIRKSVILLE     CLEAR     59  56  89 SE7       30.02S

$$

MOZ041-047>049-056>058-063>065-088>090-097-030500-
...EASTERN AND SOUTHERN MISSOURI...

CITY           SKY/WX    TMP DP  RH WIND       PRES   REMARKS
ST. LOUIS INTL PTCLDY    65  56  72 SE9       30.06R
SPIRIT OF STL  CLEAR     58  57  97 CALM      30.05R
COLUMBIA       CLEAR     59  56  89 SE6       30.03S
JEFFERSON CITY CLEAR     59  56  89 SE5       30.03R
MEXICO         PTCLDY   N/A N/A N/A CALM      30.03S
ROLLA          CLEAR     58  56  93 SE8       30.03S
LEBANON        CLEAR     61  57  88 SE7       30.04S
OSAGE BEACH    CLEAR     61  55  82 SE3       30.03S
SPRINGFIELD    CLEAR     67  59  75 SE8       30.01R
BRANSON        CLOUDY    66  59  77 SE6       30.03S
NEVADA         PTCLDY    66  63  88 SE7       29.98S
JOPLIN         CLEAR     70  65  84 SE8       29.97R
WEST PLAINS    CLEAR     59  55  87 E6        30.07R

$$

IAZ060-094-KSZ022-034>040-054-083-096-NEZ052-066-093-030500-
...KANSAS...SOUTHEAST NEBRASKA AND IOWA...

CITY           SKY/WX    TMP DP  RH WIND       PRES   REMARKS
TOPEKA         CLEAR     69  63  81 SE10      29.94R
MANHATTAN      CLOUDY    73  68  84 E7        29.89R
EMPORIA        CLEAR     72  66  81 SE12      29.92R
CHANUTE        CLEAR     71  68  90 SE7       29.94R
WICHITA        PTCLDY    76  67  73 S13       29.88R
OMAHA          CLEAR     65  58  78 SE14      29.91S
LINCOLN        CLEAR     68  61  78 SE15      29.88F
FALLS CITY     MOCLDY    67  58  72 SE13      29.91S
LAMONI         CLOUDY    66  57  72 SE9       29.97F
DES MOINES     CLOUDY    65  55  70 SE12      29.97S

$$



USA.gov is the U.S. government's official web portal to all federal, state and local government web resources and services.